Regional Weather Roundup
Issued by NWS

Home | Current Version | Previous Version | Graphics & Text | Print | Product List | Glossary On
Versions: 1 2 3 4 5 6 7 8 9 10 11 12 13 14 15 16 17 18 19 20 21 22 23 24 25 26 27 28 29 30 31 32 33 34 35 36 37 38 39 40 41 42 43 44 45 46 47 48 49 50
000
ASUS43 KDTX 271410
RWRMI
MICHIGAN HOURLY REGIONAL WEATHER ROUNDUP
NATIONAL WEATHER SERVICE DETROIT/PONTIAC MI
900 AM EST FRI FEB 27 2015

NOTE: "FAIR" INDICATES FEW OR NO CLOUDS BELOW 12,000 FEET WITH NO
SIGNIFICANT WEATHER AND/OR OBSTRUCTION TO VISIBILITY.

MIZ047>049-052>055-059>063-066>070-074>076-081>083-271500-
SOUTHEAST LOWER MICHIGAN

CITY           SKY/WX    TMP DP  RH WIND       PRES   REMARKS
ADRIAN         SUNNY      0  -8  69 N3        30.52R
ALMA           SUNNY     -8 -13  76 CALM      30.51R
ANN ARBOR      SUNNY      1  -7  68 NW6       30.50R WCI -10
BAD AXE        SUNNY     -6 -11  77 SW5       30.49R WCI -17
CARO           SUNNY     -9 -16  73 CALM      30.49R
DETROIT CITY   SUNNY      7   2  80 CALM      30.52R
DETROIT        SUNNY      0  -6  76 W5        30.53R WCI -10
FLINT          SUNNY     -8 -12  83 S3        30.50R
GROSSE ILE     SUNNY      1  -4  78 CALM      30.51R
HILLSDALE      MOSUNNY   -3  -8  78 CALM      30.46R
HOWELL         SUNNY     -2  -8  75 CALM      30.48R

CITY           SKY/WX    TMP DP  RH WIND       PRES   REMARKS
JACKSON        SUNNY     -5  -9  83 SW3       30.49R
LAMBERTVILLE   SUNNY      3  -2  78 CALM      30.53R
LANSING        SUNNY      0  -7  72 W6        30.50R WCI -12
LAPEER         FAIR     -11 -16  78 CALM      30.49R
MASON          SUNNY    -10 -15  78 CALM      30.48R
MONROE         SUNNY      0  -6  78 CALM      30.51R
MT. CLEMENS    MOSUNNY    0  -4  84 W3        30.50R
PONTIAC        SUNNY     -5  -7  91 CALM      30.47R
PORT HOPE        N/A      0  -9  65 SW5       30.48R WCI -10
PORT HURON     SUNNY     -8 -11  84 CALM      30.51R
TRI CITIES     SUNNY     -4 -11  72 SW7       30.51R WCI -18
TROY           SUNNY      7   0  71 CALM      30.52R
SAGINAW HB     SUNNY      0  -8  71 SW5       30.51R WCI -10
$$
MIZ043>046-050>051-056>058-064>065-071>073-077>080-271500-
SOUTHWEST LOWER MICHIGAN

CITY           SKY/WX    TMP DP  RH WIND       PRES   REMARKS
BATTLE CREEK   SUNNY     -5 -12  72 CALM      30.50R
BENTON HARBOR  CLOUDY     3  -7  63 S6        30.54R WCI  -8
BIG RAPIDS     CLOUDY   -15 -21  76 CALM      30.46R HAZE
COLDWATER      SUNNY    -10 -16  76 CALM      30.50R
FREMONT        PTSUNNY   -6 -13  70 CALM      30.50R
HOLLAND        PTSUNNY    3  -9  57 S6        30.53R WCI  -8
GRAND RAPIDS   MOSUNNY   -6 -12  75 S3        30.50R
IONIA          FAIR      -4 -12  69 W6        30.49R WCI -16
KALAMAZOO      CLOUDY     0  -6  76 S3        30.51R
LUDINGTON      LGT SNOW   3  -3  77 SE3       30.49R
MARSHALL       MOSUNNY  -11 -16  79 CALM      30.49R
MOUNT PLEASANT SUNNY     -4 -11  74 CALM      30.49R
MUSKEGON       LGT SNOW   2  -7  66 SE7       30.52R WCI -11
SOUTH HAVEN    SUNNY      2  -8  60 CALM      30.53R
$$
MIZ016>042-271500-
NORTHERN LOWER MICHIGAN

CITY           SKY/WX    TMP DP  RH WIND       PRES   REMARKS
ALPENA         SUNNY     -1  -8  72 SW5       30.45R WCI -11
BEAVER ISLAND  SUNNY     -2  -5  87 CALM      30.43R
BELLAIRE       SUNNY    -15 -21  76 CALM      30.47S
CADILLAC       PTSUNNY  -19 -27  67 CALM      30.40R
CHARLEVOIX     MOSUNNY   -8 -12  80 CALM      30.46R
FRANKFORT      CLOUDY    -6 -10  81 CALM      30.47R
GAYLORD        MOSUNNY  -10 -12  91 SW7       30.37R WCI -25
GRAYLING       MOSUNNY  -22 -30  67 CALM      30.41R
HARBOR SPRINGS SUNNY     -2  -8  76 CALM      30.43R
HOUGHTON LAKE  MOSUNNY  -13 -16  86 CALM      30.43R
MANISTEE       CLOUDY    -6 -11  77 E5        30.48R WCI -17
OSCODA         SUNNY     -6 -12  74 SW8       30.47R WCI -21
PELLSTON       SUNNY    -17 -20  86 CALM      30.43R
ROGERS CITY    SUNNY      2  -3  79 W8        30.44R WCI -12
TRAVERSE CITY  PTSUNNY  -10 -13  86 W3        30.46R
$$
MIZ007>008-015-271500-
EASTERN UPPER MICHIGAN

CITY           SKY/WX    TMP DP  RH WIND       PRES   REMARKS
KINROSS        SUNNY     -4  -8  84 SW7       30.39R WCI -18
MACKINAC ISLAN MOSUNNY   -1  -7  78 SW8       30.41R WCI -16
NEWBERRY       MOSUNNY   -4  -6  88 W9        30.38R WCI -20
S. S. MARIE    SUNNY     -7  -8  96 CALM      30.38R
MUNISING         N/A     -7 -13  75 S8        30.41R WCI -23
$$
MIZ004>006-011>014-085-271500-
CENTRAL UPPER MICHIGAN

CITY           SKY/WX    TMP DP  RH WIND       PRES   REMARKS
MANISTIQUE     MOSUNNY   -3  -9  75 W8        30.42R WCI -18
ESCANABA       SUNNY     -2 -29  26 W10       30.45R WCI -19
MENOMINEE      SUNNY     -2  -9  71 NW5       30.47R WCI -12
SAWYER-GWINN   SUNNY     -9 -15  77 W5        30.34S WCI -21
$$
MIZ001>003-009>011-084-271500-
WESTERN UPPER MICHIGAN

CITY           SKY/WX    TMP DP  RH WIND       PRES   REMARKS
IRON MOUNTAIN  MOSUNNY   -5 -13  68 W7        30.39R WCI -19
HOUGHTON       SUNNY      0  -6  76 W13       30.34R WCI -18
COPPER HARBOR    N/A      7  -4  60 NW8       30.37R WCI  -6
IRONWOOD       MOSUNNY   -8  -8 100 SW6       30.37R WCI -21
$$

ABBREVIATIONS USED IN REMARKS
   TC - TEMPERATURE IN CELSIUS
  WCI - WIND CHILL INDEX
   HX - HEAT INDEX
  VSB - VISIBILITY




USA.gov is the U.S. government's official web portal to all federal, state and local government web resources and services.